Shreveport Downtown, LA

5:49 PM CDT on May 26, 2018 (GMT -0500)
Shreveport Downtown

Weather History for KDTN - October, 2011

Change the Weather History Date:

Friday, October 7, 2011

  Actual Average (WUND) Record (WUND)
Temperature  
Mean Temperature 76 °F -  
Max Temperature 88 °F - - (-1)
Min Temperature 63 °F - - (-1)
Cooling Degree Days 10    
Growing Degree Days 26 (Base 50)    
Moisture  
Dew Point 59 °F    
Average Humidity 59    
Maximum Humidity 87    
Minimum Humidity 35    
Precipitation  
Precipitation 0.00 in - - ()
Sea Level Pressure  
Sea Level Pressure 30.10 in    
Wind  
Wind Speed 9 mph (SE)    
Max Wind Speed 15 mph    
Max Gust Speed 23 mph    
Visibility 10 miles    
Events      
Averages and records for this station are not official NWS values.
T = Trace of Precipitation, MM = Missing Value Source: NWS Daily Summary

Daily Weather History Graph

Daily Weather History Graph

Search for Another Location

Airport or City:

Astronomy

Oct. 07, 2011 Rise Set
Actual Time 7:12 AM CDT 6:52 PM CDT
Civil Twilight 6:48 AM CDT 7:16 PM CDT
Nautical Twilight 6:19 AM CDT 7:45 PM CDT
Astronomical Twilight 5:51 AM CDT 8:13 PM CDT
Moon 4:24 PM CDT (10/7) 3:15 AM CDT (10/7)
Length of Visible Light 12h 28m
Length of Day
11h 39m
Waxing Gibbous, 83% of the Moon is Illuminated
Oct 7
Waxing Gibbous
Oct 11
Full
Oct 19
Last Quarter
Oct 26
New
Nov 2
First Quarter

Hourly Weather History & Observations

Time (CDT) Temp. Heat Index Dew Point Humidity Pressure Visibility Wind Dir Wind Speed Gust Speed Precip Events Conditions
12:53 AM 73.0 °F - 59.0 °F 61% 30.08 in 10.0 mi SE 11.5 mph - N/A   Clear
1:53 AM 72.0 °F - 60.1 °F 66% 30.09 in 10.0 mi SSE 9.2 mph - N/A   Clear
2:53 AM 70.0 °F - 61.0 °F 73% 30.10 in 10.0 mi SE 8.1 mph - N/A   Clear
3:53 AM 68.0 °F - 60.1 °F 76% 30.11 in 10.0 mi ESE 3.5 mph - N/A   Clear
4:53 AM 64.0 °F - 60.1 °F 87% 30.11 in 10.0 mi ESE 3.5 mph - N/A   Clear
5:53 AM 64.0 °F - 60.1 °F 87% 30.12 in 10.0 mi East 4.6 mph - N/A   Clear
6:53 AM 63.0 °F - 59.0 °F 87% 30.13 in 10.0 mi East 4.6 mph - N/A   Clear
7:53 AM 64.0 °F - 59.0 °F 84% 30.14 in 10.0 mi East 5.8 mph - N/A   Clear
8:53 AM 69.1 °F - 60.1 °F 73% 30.15 in 10.0 mi ESE 8.1 mph - N/A   Clear
9:53 AM 75.0 °F - 63.0 °F 66% 30.16 in 10.0 mi SE 11.5 mph - N/A   Clear
10:53 AM 79.0 °F - 63.0 °F 58% 30.16 in 10.0 mi SSE 12.7 mph 19.6 mph N/A   Clear
12:53 PM 84.0 °F 84.0 °F 60.1 °F 44% 30.13 in 10.0 mi SSE 13.8 mph 23.0 mph N/A   Clear
1:53 PM 87.1 °F 86.5 °F 59.0 °F 39% 30.10 in 10.0 mi SSE 13.8 mph - N/A   Clear
2:53 PM 88.0 °F 86.9 °F 57.9 °F 36% 30.08 in 10.0 mi SSE 12.7 mph - N/A   Clear
4:53 PM 88.0 °F 86.7 °F 57.0 °F 35% 30.05 in 10.0 mi South 15.0 mph - N/A   Partly Cloudy
5:53 PM 86.0 °F 84.7 °F 55.9 °F 36% 30.05 in 10.0 mi SSE 11.5 mph - N/A   Clear
6:53 PM 82.0 °F 81.6 °F 55.9 °F 41% 30.06 in 10.0 mi SE 8.1 mph - N/A   Clear
7:53 PM 79.0 °F - 57.0 °F 47% 30.07 in 10.0 mi SE 5.8 mph - N/A   Clear
8:53 PM 78.1 °F - 55.9 °F 46% 30.09 in 10.0 mi SE 5.8 mph - N/A   Clear
9:53 PM 77.0 °F - 55.9 °F 48% 30.10 in 10.0 mi SE 6.9 mph - N/A   Clear
10:53 PM 75.0 °F - 57.0 °F 53% 30.11 in 10.0 mi SE 5.8 mph - N/A   Clear
11:53 PM 73.9 °F - 57.9 °F 57% 30.11 in 10.0 mi SE 6.9 mph - N/A   Clear